User: anonymous   Login
Location: Unspecified
(0.0000°N, 0.0000°E)
Time: 20:00:39
(UTC+00:00)
Language:

E-STAR-II - Orbit

View from above orbital plane
View from above orbital plane
View from above satellite
View from above satellite

Ground track
Ground track

The orbit data is extracted from the following two-line orbital elements,

1 41459U 16025D   17269.57973273  .00002013  00000-0  11155-3 0  9997
2 41459  98.1771 312.8716 0172173 311.5507  47.1059 15.03437810 77809
Epoch (UTC): 26 September 2017 13:54:48
Eccentricity: 0.0172173
inclination: 98.1771°
perigee height: 437 km
apogee height: 676 km
right ascension of ascending node: 312.8716°
argument of perigee: 311.5507°
revolutions per day: 15.03437810
mean anomaly at epoch: 47.1059°
orbit number at epoch: 7780

The dashed part of the orbit path shows where the satellite is in the earth's shadow,  

DLR